[[{"header":{"parameterUnit":"m.s-1","parameterCategory":1,"la1":30.2991,"la2":30.254,"lo1":-89.0895,"lo2":-89.0444,"dy":0.0017,"dx":0.0017,"nx":28,"ny":28,"refTime":"2024-05-29T03:00:00:Z","depth":0,"parameterNumber":2,"parameterNumberName":"U-component_of_WINDS"},"data":[0,0,0,0,0,0,0,0,0,0,0,0,0,0,0,0,0,0,0,0,0,0,0,0,0,0,0,0,0,0,0,0,0,0,0,0,0,0,0,0,0,0,0,0,0,0,0,0,0,0,0,0,0,0,0,0,0,0,2.4587,2.4587,0,2.4587,2.4587,2.4587,2.4533,2.4531,2.453,2.4529,2.4533,2.4535,2.4536,0,0,0,0,0,0,0,0,0,0,0,0,0,2.4544,2.4545,2.4587,2.4587,2.4587,2.4587,2.4587,2.4587,2.4533,2.4531,2.453,2.4528,2.4533,2.4534,2.4536,0,0,0,0,0,0,0,0,0,0,0,0,0,2.4556,2.4546,2.4587,2.456,2.4557,2.4587,2.4587,2.4587,2.4534,2.4531,2.4529,2.4527,2.4532,2.4534,2.4536,2.4593,0,0,2.4543,2.4544,0,0,0,0,0,0,0,0,2.4555,2.4557,2.4564,2.4562,2.4559,2.4558,2.4574,2.4589,2.4534,2.4543,2.4529,2.4526,2.4543,2.4545,2.4549,2.4594,2.4594,2.4543,2.4545,2.4546,2.4546,0,0,0,0,0,0,0,2.4554,2.4557,2.4587,2.4564,2.4561,2.4549,2.4549,2.4577,2.4555,2.4542,2.4538,2.4538,2.4542,2.4548,2.4549,2.4594,2.4543,2.4545,2.4547,2.4548,2.4686,2.4689,0,0,0,0,0,0,2.4557,2.4557,2.4587,2.4587,2.4551,2.4552,2.4551,2.456,2.4555,2.4552,2.454,2.4536,2.4545,2.4547,2.4549,2.4615,2.4546,2.4548,2.4549,2.4684,2.4687,2.4689,0,0,0,0,0,0,2.4556,2.456,2.4587,2.4571,2.4573,2.4555,2.4566,2.4562,2.4567,2.4554,2.455,2.455,2.4543,2.4546,2.4583,2.4615,2.4549,2.4551,2.4681,2.4685,2.4688,2.4748,0,0,0,0,0,0,2.4555,2.456,2.458,2.4572,2.4574,2.4619,2.4568,2.4563,2.4571,2.4565,2.4561,2.4559,2.4542,2.458,2.4585,2.4616,2.4552,2.4678,2.4683,2.4687,2.4743,2.4753,2.4762,0,0,0,0,0,2.4554,2.4597,2.4581,2.4585,2.4599,2.4621,2.4623,2.4601,2.4573,2.4594,2.4586,2.4559,2.4611,2.4584,2.4589,2.4622,2.4676,2.4682,2.4687,2.4739,2.4751,2.4762,0,0,0,0,0,0,2.461,2.4595,2.4577,2.4619,2.4622,2.4612,2.4636,2.4614,2.4625,2.462,2.4594,2.4593,2.4635,2.4633,2.4603,2.4678,2.4639,2.4646,2.4677,2.4688,2.4698,2.4696,2.4554,0,0,0,0,0,2.4628,2.4645,2.4632,2.4671,2.4673,2.4655,2.4664,2.4647,2.4649,2.465,2.4644,2.4648,2.4666,2.4677,2.4693,2.4744,2.4743,2.4769,2.4779,2.4787,2.4792,2.4819,2.4831,2.4707,2.4707,2.4707,0,0,2.4664,2.4658,2.4671,2.4682,2.4682,2.4702,2.4656,2.4679,2.4695,2.4654,2.4687,2.4684,2.4687,2.4731,2.4751,2.4731,2.4827,2.4793,2.48,2.4801,2.4826,2.4838,2.4848,2.4711,2.471,2.4709,0,0,2.4739,2.4737,2.4768,2.4769,2.4769,2.4758,2.4766,2.476,2.4755,2.4789,2.4759,2.4778,2.4808,2.4812,2.4817,2.4898,2.4874,2.4904,2.4952,2.4979,2.4989,2.4997,2.5025,2.5036,2.491,2.491,2.491,0,2.4784,2.4811,2.4788,2.4813,2.4819,2.4784,2.4816,2.4819,2.4825,2.4831,2.4809,2.4847,2.4847,2.4891,2.4911,2.4918,2.4926,2.4903,2.4989,2.4998,2.5005,2.5032,2.5042,2.4914,2.4913,2.4913,2.4913,0,2.4866,2.4887,2.4913,2.4918,2.4928,2.4957,2.4939,2.4953,2.4937,2.4928,2.4964,2.4962,2.4977,2.4987,2.4971,2.503,2.5018,2.4993,2.4953,2.5021,2.5045,2.5055,2.4919,2.4917,2.4916,2.4916,0,0,2.4974,2.4968,2.4977,2.498,2.4979,2.4995,2.5024,2.5037,2.5049,2.5056,2.5079,2.5107,2.5085,2.5092,2.5077,2.5101,2.5165,2.5073,2.5073,2.5089,2.5229,2.5246,2.5258,2.515,2.5152,2.5153,2.5229,0,2.5046,2.5092,2.5073,2.5122,2.5141,2.5109,2.5135,2.5138,2.5132,2.5148,2.5142,2.5162,2.5131,2.5135,2.5158,2.5152,2.5192,2.5147,2.5172,2.5173,2.517,2.5271,2.5289,2.536,2.5238,2.524,2.5241,0,2.5135,2.5144,2.5195,2.5191,2.5199,2.5221,2.5233,2.5249,2.5253,2.5247,2.5256,2.5237,2.5267,2.523,2.5271,2.5241,2.5251,2.525,2.5253,2.5252,2.5209,2.5272,2.5382,2.5392,2.5256,2.5255,2.5254,0,2.5207,2.5233,2.5266,2.527,2.5267,2.5284,2.5284,2.5286,2.5296,2.5307,2.5313,2.5329,2.5337,2.535,2.5336,2.531,2.538,2.5341,2.5376,2.5377,2.539,2.5389,2.5501,2.54,2.54,2.54,2.54,0,2.5288,2.532,2.5298,2.5319,2.5354,2.5334,2.537,2.5367,2.537,2.539,2.5365,2.5386,2.5367,2.5386,2.5376,2.5412,2.5417,2.5413,2.541,2.5414,2.5414,2.5418,2.5412,2.5403,2.5402,2.5402,2.5401,0,2.5373,2.536,2.5394,2.5389,2.5389,2.5416,2.5412,2.5432,2.5425,2.5452,2.5457,2.5446,2.5468,2.5456,2.5479,2.5472,2.5519,2.551,2.5516,2.5513,2.5548,2.5545,2.5665,2.568,2.5572,2.5573,2.5574,0,2.5424,2.5448,2.5446,2.5457,2.5459,2.5478,2.5487,2.547,2.5481,2.5489,2.5508,2.5528,2.5542,2.5578,2.5574,2.5592,2.5582,2.5623,2.5584,2.5588,2.5581,2.5578,2.5581,2.563,2.5631,2.5632,2.5633,0,2.5517,2.5509,2.5523,2.5536,2.5548,2.5558,2.5566,2.5577,2.556,2.5575,2.5595,2.5607,2.563,2.565,2.5665,2.5668,2.5648,2.5646,2.5655,2.5658,2.566,2.5658,2.5536,2.5643,2.5642,2.5641,2.564,2.564,2.5585,2.5605,2.5606,2.5624,2.5628,2.5636,2.5654,2.565,2.5666,2.5683,2.5673,2.5698,2.5704,2.5723,2.5728,2.5748,2.5732,2.5745,2.5748,2.5751,2.5755,2.5659,2.5752,2.5751,2.5751,2.5751,2.5751,0,2.5675,2.5675,2.5691,2.5702,2.5716,2.5697,2.5705,2.5718,2.574,2.5747,2.5761,2.5787,2.5806,2.5805,2.5823,2.584,2.5832,2.5845,2.5843,2.5844,2.5769,2.5759,2.5852,2.5852,2.5852,2.5852,2.5852,2.5852,2.5722,2.5754,2.5748,2.5783,2.5783,2.5806,2.5813,2.5821,2.5826,2.5855,2.5871,2.5869,2.5873,2.5892,2.591,2.5909,2.5916,2.5933,2.5929,2.5859,2.5849,2.5839,2.5829,2.5936,2.5936,2.6002,2.6002,2.6003]},{"header":{"parameterUnit":"m.s-1","parameterCategory":1,"la1":30.2991,"la2":30.254,"lo1":-89.0895,"lo2":-89.0444,"dy":0.0017,"dx":0.0017,"nx":28,"ny":28,"refTime":"2024-05-29T03:00:00:Z","depth":0,"parameterNumber":3,"parameterNumberName":"V-component_of_WINDS"},"data":[0,0,0,0,0,0,0,0,0,0,0,0,0,0,0,0,0,0,0,0,0,0,0,0,0,0,0,0,0,0,0,0,0,0,0,0,0,0,0,0,0,0,0,0,0,0,0,0,0,0,0,0,0,0,0,0,0,0,0.5087,0.5088,0,0.5137,0.5137,0.5138,0.51,0.5098,0.5096,0.5095,0.5153,0.5156,0.5159,0,0,0,0,0,0,0,0,0,0,0,0,0,0.4962,0.4965,0.5087,0.5088,0.5089,0.5137,0.5138,0.5138,0.51,0.5098,0.5096,0.5094,0.5152,0.5155,0.5159,0,0,0,0,0,0,0,0,0,0,0,0,0,0.5015,0.4966,0.5087,0.5075,0.5074,0.5137,0.5138,0.5138,0.51,0.5098,0.5095,0.5093,0.515,0.5155,0.516,0.5239,0,0,0.5174,0.5176,0,0,0,0,0,0,0,0,0.5012,0.502,0.5076,0.5076,0.5075,0.5109,0.5115,0.5172,0.5101,0.5091,0.5095,0.5092,0.5141,0.5146,0.5161,0.5241,0.5244,0.5174,0.5177,0.5179,0.518,0,0,0,0,0,0,0,0.5008,0.5017,0.5107,0.5077,0.5077,0.5068,0.5073,0.5125,0.513,0.5091,0.5089,0.5095,0.514,0.5157,0.5162,0.5245,0.5174,0.5178,0.5181,0.5183,0.5387,0.5389,0,0,0,0,0,0,0.5005,0.5015,0.5106,0.5109,0.5037,0.5072,0.5078,0.5101,0.5129,0.513,0.5097,0.5093,0.515,0.5157,0.5164,0.5255,0.5179,0.5183,0.5186,0.5384,0.5387,0.539,0,0,0,0,0,0,0.5003,0.5014,0.5104,0.5061,0.5071,0.5077,0.5104,0.5103,0.512,0.5133,0.5134,0.5113,0.5148,0.5158,0.5219,0.5257,0.5186,0.519,0.5381,0.5385,0.5389,0.544,0,0,0,0,0,0,0.4999,0.5013,0.5043,0.5062,0.5074,0.5157,0.5106,0.5106,0.5127,0.5122,0.5148,0.515,0.5147,0.5212,0.5223,0.5262,0.5193,0.5378,0.5383,0.5387,0.5435,0.5445,0.5453,0,0,0,0,0,0.4995,0.5058,0.5045,0.5056,0.5111,0.5159,0.5166,0.516,0.5131,0.516,0.5168,0.5149,0.525,0.5218,0.5231,0.5271,0.5375,0.5381,0.5387,0.543,0.5443,0.5453,0,0,0,0,0,0,0.5049,0.5061,0.5046,0.5117,0.5137,0.5152,0.5191,0.5174,0.5205,0.5199,0.5191,0.5197,0.526,0.5272,0.5237,0.5346,0.5308,0.5317,0.5337,0.5349,0.5358,0.5354,0.5197,0,0,0,0,0,0.5068,0.5104,0.5114,0.5175,0.5185,0.5186,0.5207,0.5199,0.5221,0.523,0.5242,0.5265,0.5301,0.5325,0.536,0.5435,0.5439,0.5469,0.5478,0.5486,0.5494,0.553,0.5542,0.5409,0.5409,0.5409,0,0,0.511,0.5121,0.5145,0.5186,0.5201,0.5238,0.5194,0.5238,0.5265,0.5237,0.5294,0.5303,0.5328,0.5395,0.5425,0.5407,0.5531,0.5493,0.5499,0.5503,0.5537,0.555,0.5561,0.5413,0.5412,0.5412,0,0,0.5205,0.5218,0.5268,0.5282,0.5302,0.5301,0.5313,0.533,0.5334,0.5389,0.5367,0.5401,0.5465,0.5482,0.5499,0.5593,0.5576,0.5605,0.5655,0.569,0.57,0.571,0.5741,0.5752,0.5612,0.5612,0.5612,0,0.5256,0.531,0.5297,0.534,0.5357,0.5329,0.5379,0.5394,0.5426,0.5439,0.5416,0.5491,0.5507,0.5575,0.5597,0.5613,0.5625,0.5602,0.5699,0.5709,0.5717,0.5747,0.5759,0.5615,0.5615,0.5615,0.5614,0,0.5369,0.5407,0.5445,0.5472,0.5494,0.5541,0.5534,0.5558,0.5547,0.5548,0.5603,0.5619,0.5654,0.5669,0.5662,0.5735,0.5722,0.57,0.5662,0.5733,0.576,0.5772,0.562,0.5619,0.5618,0.5617,0,0,0.5504,0.5517,0.5531,0.5541,0.5558,0.5588,0.5632,0.5662,0.5681,0.5703,0.5739,0.579,0.5767,0.5787,0.5779,0.581,0.5879,0.5784,0.5784,0.5799,0.5958,0.5974,0.5988,0.5867,0.587,0.5871,0.5955,0,0.5598,0.5671,0.5658,0.573,0.5763,0.5733,0.5771,0.5786,0.5787,0.5815,0.5817,0.5852,0.5821,0.5831,0.5861,0.5865,0.5911,0.5859,0.5901,0.5902,0.5894,0.6003,0.6021,0.61,0.5966,0.5968,0.597,0,0.5718,0.5739,0.5813,0.5819,0.5833,0.5867,0.5891,0.5919,0.5934,0.5932,0.595,0.5935,0.5978,0.5937,0.5995,0.5959,0.5975,0.5979,0.5982,0.5986,0.594,0.6008,0.6125,0.6136,0.5987,0.5985,0.5984,0,0.5805,0.5852,0.5901,0.591,0.5921,0.5944,0.595,0.5962,0.5979,0.6001,0.6011,0.6039,0.6054,0.6075,0.6067,0.6039,0.6125,0.6085,0.6125,0.6125,0.6145,0.6144,0.6265,0.6157,0.6157,0.6156,0.6156,0,0.5911,0.5957,0.5939,0.597,0.6019,0.6003,0.6053,0.6055,0.6065,0.6094,0.6072,0.61,0.6089,0.6116,0.6111,0.6157,0.6165,0.6165,0.6162,0.6166,0.6166,0.6177,0.6171,0.616,0.6159,0.6158,0.6158,0,0.6018,0.6008,0.6059,0.6062,0.6063,0.6099,0.6102,0.613,0.6126,0.6164,0.6172,0.6168,0.6199,0.6192,0.6228,0.6224,0.6281,0.6273,0.6276,0.6273,0.6312,0.6308,0.6444,0.646,0.6342,0.6344,0.6345,0,0.6086,0.612,0.6124,0.614,0.6146,0.6174,0.619,0.6174,0.6191,0.6207,0.6233,0.626,0.6282,0.6332,0.6333,0.6358,0.635,0.6395,0.6354,0.6355,0.6348,0.6345,0.6347,0.6404,0.6406,0.6407,0.6408,0,0.6207,0.6198,0.622,0.6239,0.6257,0.6273,0.6286,0.6301,0.6286,0.6306,0.6335,0.6351,0.6384,0.6411,0.6433,0.644,0.6421,0.642,0.643,0.6434,0.6433,0.6431,0.6297,0.6417,0.6416,0.6416,0.6415,0.6415,0.6295,0.6321,0.6326,0.6351,0.6357,0.6369,0.6393,0.639,0.6413,0.6436,0.6426,0.6458,0.6468,0.6495,0.6504,0.6529,0.6512,0.6527,0.6531,0.6535,0.6538,0.6428,0.6533,0.6533,0.6533,0.6532,0.6532,0,0.6412,0.6412,0.6434,0.645,0.6468,0.6445,0.6457,0.6474,0.6502,0.6511,0.6531,0.6562,0.6586,0.6587,0.6609,0.6629,0.6621,0.6636,0.6634,0.6635,0.6553,0.6541,0.6642,0.6642,0.6642,0.6642,0.6642,0.6642,0.6475,0.6517,0.6508,0.6552,0.6553,0.6582,0.659,0.66,0.6606,0.6641,0.666,0.6658,0.6663,0.6685,0.6706,0.6705,0.6714,0.6732,0.6728,0.6652,0.6641,0.6631,0.6619,0.6734,0.6735,0.6807,0.6808,0.6808]}]]